Regional Weather Roundup
Issued by NWS

Home | Current Version | Previous Version | Text Only | Print | Product List | Glossary Off
Versions: 1 2 3 4 5 6 7 8 9 10 11 12 13 14 15 16 17 18 19 20 21 22 23 24 25 26 27 28 29 30 31 32 33 34 35 36 37 38 39 40 41 42 43 44 45 46 47 48 49 50

000
ASUS45 KCYS 071710
RWRWY

WYOMING REGIONAL WEATHER ROUNDUP
NATIONAL WEATHER SERVICE CHEYENNE WY
1000 AM MST SUN FEB 07 2016

NOTE:  "FAIR" INDICATES FEW OR NO CLOUDS BELOW 12,000 FEET
WITH NO SIGNIFICANT WEATHER AND/OR OBSTRUCTIONS TO VISIBILITY.

WYZ001-071800-
YELLOWSTONE NATIONAL PARK

CITY           SKY/WX    TMP DP  RH WIND       PRES   REMARKS
LK YELLOWSTONE   N/A     18  12  77 VRB3      30.44R
W YELLOWSTONE  NOT AVBL

$$
WYZ002>013-054>058-071-098>099-071800-
NORTHERN WYOMING

CITY           SKY/WX    TMP DP  RH WIND       PRES   REMARKS
JACKSON        SUNNY     28  21  74 S12G21    30.45R WCI  18
CODY           FAIR      32  16  51 N15       30.39S WCI  22
GREYBULL       FAIR      37  12  35 NW22G41   30.39R WCI  26
WORLAND        FAIR      33  17  51 W9        30.41R WCI  25
SHERIDAN       CLOUDY    33  16  49 NW23G31   30.39R WCI  21
BUFFALO        CLOUDY    31  11  43 NW30G43   30.34R WCI  16
GILLETTE       FAIR      30  12  47 NW28G38   30.31R WCI  15
HULETT         FAIR      32  10  40 NW22G35   30.26R WCI  19
NEWCASTLE      FAIR      32   7  34 NW25G44   30.26R WCI  19

$$
WYZ014>020-022>026-101>103-071800-
CENTRAL WYOMING

CITY           SKY/WX    TMP DP  RH WIND       PRES   REMARKS
BIG PINEY      FAIR      31  18  58 NW14      30.42R WCI  21
PINEDALE       FAIR      27  18  69 W9        30.40S WCI  17
DUBOIS         FAIR      32  10  40 NW25G41   30.34R WCI  19
LANDER         FAIR      26  14  60 S5        30.37R WCI  20
RIVERTON       FAIR      27  13  55 E6        30.39R WCI  20
CASPER         FAIR      19  11  70 NE5       30.37R WCI  12
DOUGLAS        CLOUDY    30  14  51 NW29G38     N/A  WCI  15

$$
WYZ021-027>030-104>119-071800-
SOUTHERN WYOMING

CITY           SKY/WX    TMP DP  RH WIND       PRES   REMARKS
EVANSTON       FAIR      26  16  65 SW12      30.51R WCI  16
FORT BRIDGER   SUNNY     30  21  69 W18       30.52R WCI  18
ROCK SPRINGS   FAIR      29  20  69 W35       30.41R WCI  12
DIXON          FAIR      18  10  71 N3        30.47S
RAWLINS        FAIR      24  17  74 W25       30.36R WCI   8
SARATOGA       FAIR      27  21  80 W28G33    30.37R WCI  11
LARAMIE        FAIR      28  18  66 NW18      30.27R WCI  15
CHEYENNE       CLOUDY    28  19  69 N15G35    30.28R WCI  16
TORRINGTON     CLOUDY    33  15  47 NW24G33   30.30R WCI  20
PINE BLUFFS    LGT SNOW  28  23  80 NW25G33   30.32R WCI  14

$$



USA.gov is the U.S. government's official web portal to all federal, state and local government web resources and services.